[[{"header":{"parameterUnit":"m.s-1","parameterCategory":1,"la1":30.2991,"la2":30.254,"lo1":-89.0895,"lo2":-89.0444,"dy":0.0017,"dx":0.0017,"nx":28,"ny":28,"refTime":"2026-01-04T03:00:00:Z","depth":0,"parameterNumber":2,"parameterNumberName":"U-component_of_WINDS"},"data":[0,0,0,0,0,0,0,0,0,0,0,0,0,0,0,0,0,0,0,0,0,0,0,0,0,0,0,0,0,0,0,0,0,0,0,0,0,0,0,0,0,0,0,0,0,0,0,0,0,0,0,0,0,0,0,0,0,0,-2.1353,-2.1354,0,-2.146,-2.1461,-2.1462,-2.1441,-2.1439,-2.1437,-2.1435,-2.1547,-2.1551,-2.1556,0,0,0,0,0,0,0,0,0,0,0,0,0,-2.1134,-2.1138,-2.1353,-2.1354,-2.1356,-2.146,-2.1461,-2.1463,-2.1441,-2.1439,-2.1437,-2.1434,-2.1545,-2.1551,-2.1556,0,0,0,0,0,0,0,0,0,0,0,0,0,-2.1234,-2.1139,-2.1353,-2.1357,-2.1359,-2.1459,-2.1461,-2.1463,-2.1442,-2.1439,-2.1436,-2.1433,-2.1543,-2.155,-2.1557,-2.166,0,0,-2.1579,-2.1582,0,0,0,0,0,0,0,0,-2.1228,-2.1242,-2.1355,-2.1357,-2.1359,-2.1434,-2.1425,-2.1529,-2.1443,-2.141,-2.1435,-2.1432,-2.1512,-2.1521,-2.1548,-2.1665,-2.167,-2.158,-2.1584,-2.1587,-2.1589,0,0,0,0,0,0,0,-2.1221,-2.1237,-2.1395,-2.1357,-2.1359,-2.1355,-2.1366,-2.1444,-2.1476,-2.1413,-2.1412,-2.1425,-2.1512,-2.1541,-2.155,-2.1672,-2.1579,-2.1586,-2.159,-2.1593,-2.1881,-2.1884,0,0,0,0,0,0,-2.1212,-2.1231,-2.1392,-2.1398,-2.1285,-2.1362,-2.1374,-2.1413,-2.1475,-2.1482,-2.1427,-2.1423,-2.153,-2.1542,-2.1554,-2.168,-2.1587,-2.1594,-2.1598,-2.1878,-2.1882,-2.1886,0,0,0,0,0,0,-2.1208,-2.1227,-2.1388,-2.1315,-2.1335,-2.1369,-2.1413,-2.1417,-2.1445,-2.1486,-2.1492,-2.145,-2.1528,-2.1544,-2.1634,-2.1683,-2.1597,-2.1603,-2.1874,-2.1879,-2.1884,-2.1931,0,0,0,0,0,0,-2.1201,-2.1225,-2.1264,-2.1316,-2.1339,-2.1465,-2.1416,-2.1421,-2.1458,-2.1454,-2.1509,-2.1516,-2.1527,-2.1624,-2.1641,-2.1691,-2.1609,-2.187,-2.1876,-2.1882,-2.1925,-2.1937,-2.1947,0,0,0,0,0,-2.1194,-2.1273,-2.1266,-2.1285,-2.1387,-2.1468,-2.1481,-2.1492,-2.1461,-2.1501,-2.1528,-2.1514,-2.1675,-2.1633,-2.1653,-2.1706,-2.1867,-2.1874,-2.1882,-2.192,-2.1935,-2.1947,0,0,0,0,0,0,-2.1225,-2.1279,-2.1272,-2.137,-2.1415,-2.1464,-2.1514,-2.1507,-2.1561,-2.1555,-2.1567,-2.158,-2.1672,-2.1698,-2.165,-2.181,-2.1767,-2.1779,-2.1789,-2.1803,-2.1814,-2.1806,-2.1615,0,0,0,0,0,-2.1244,-2.1304,-2.1348,-2.143,-2.1453,-2.148,-2.1515,-2.152,-2.1567,-2.1585,-2.1618,-2.1665,-2.1726,-2.1766,-2.1825,-2.1929,-2.1942,-2.1976,-2.1987,-2.1995,-2.2006,-2.2065,-2.2081,-2.191,-2.191,-2.191,0,0,-2.1282,-2.1319,-2.1356,-2.1438,-2.1472,-2.1535,-2.1496,-2.1563,-2.1611,-2.1596,-2.1683,-2.1709,-2.1762,-2.1861,-2.1905,-2.1885,-2.2056,-2.2005,-2.2012,-2.2017,-2.2074,-2.209,-2.2104,-2.1915,-2.1915,-2.1914,0,0,-2.1385,-2.1418,-2.1491,-2.1527,-2.1581,-2.1599,-2.1616,-2.1668,-2.1684,-2.1772,-2.1763,-2.182,-2.1925,-2.1963,-2.1997,-2.2117,-2.2107,-2.2136,-2.2193,-2.225,-2.2264,-2.2275,-2.2319,-2.2335,-2.2146,-2.2146,-2.2146,0,-2.1426,-2.1519,-2.1529,-2.1599,-2.1636,-2.1626,-2.17,-2.1735,-2.1806,-2.1832,-2.1808,-2.1941,-2.1976,-2.2083,-2.2113,-2.214,-2.2162,-2.2129,-2.2261,-2.2273,-2.2284,-2.2326,-2.2342,-2.2149,-2.2149,-2.2148,-2.2148,0,-2.1568,-2.1633,-2.1686,-2.1754,-2.1797,-2.1868,-2.1891,-2.1934,-2.1936,-2.1956,-2.2047,-2.2089,-2.2157,-2.2183,-2.2185,-2.2292,-2.2278,-2.2257,-2.2214,-2.2303,-2.2343,-2.2359,-2.2154,-2.2152,-2.2151,-2.2151,0,0,-2.1691,-2.1766,-2.1785,-2.1817,-2.1876,-2.1927,-2.2,-2.2066,-2.2102,-2.2152,-2.2214,-2.2304,-2.2286,-2.2324,-2.2331,-2.2382,-2.2476,-2.2355,-2.2357,-2.2377,-2.2598,-2.2613,-2.2631,-2.247,-2.2473,-2.2475,-2.2594,0,-2.18,-2.1926,-2.1939,-2.2053,-2.2114,-2.2107,-2.217,-2.2214,-2.2236,-2.2293,-2.2318,-2.2382,-2.2352,-2.2376,-2.2425,-2.2454,-2.252,-2.2445,-2.2528,-2.2531,-2.2515,-2.2652,-2.2668,-2.2777,-2.2609,-2.2612,-2.2614,0,-2.1942,-2.1996,-2.2116,-2.2169,-2.2195,-2.2252,-2.2314,-2.2368,-2.2419,-2.2432,-2.2475,-2.2476,-2.2553,-2.2507,-2.2613,-2.2562,-2.2597,-2.2617,-2.2621,-2.2629,-2.2578,-2.2664,-2.2812,-2.2829,-2.2638,-2.2636,-2.2634,0,-2.2021,-2.2124,-2.2209,-2.2237,-2.23,-2.234,-2.2369,-2.2417,-2.2456,-2.2512,-2.2538,-2.2602,-2.2637,-2.2687,-2.2706,-2.267,-2.2812,-2.2767,-2.2825,-2.2825,-2.2855,-2.2853,-2.3011,-2.2877,-2.2877,-2.2877,-2.2876,0,-2.2141,-2.2215,-2.2246,-2.2298,-2.2382,-2.2397,-2.2479,-2.2506,-2.2549,-2.2608,-2.2606,-2.2661,-2.2683,-2.2743,-2.2758,-2.2845,-2.286,-2.2874,-2.2877,-2.2874,-2.2873,-2.2897,-2.289,-2.2881,-2.288,-2.2879,-2.2879,0,-2.2243,-2.2266,-2.2359,-2.2412,-2.2427,-2.2487,-2.2533,-2.2584,-2.2607,-2.2681,-2.27,-2.2735,-2.2805,-2.2829,-2.2914,-2.2925,-2.3026,-2.3022,-2.3008,-2.3009,-2.3066,-2.3061,-2.3246,-2.3272,-2.3121,-2.3122,-2.3123,0,-2.2317,-2.2374,-2.2433,-2.2472,-2.2502,-2.2565,-2.2606,-2.2624,-2.2666,-2.273,-2.2775,-2.2844,-2.2901,-2.3014,-2.3048,-2.3114,-2.3112,-2.3173,-2.3122,-2.3118,-2.3114,-2.311,-2.3117,-2.3182,-2.3183,-2.3185,-2.3186,0,-2.2447,-2.2457,-2.2515,-2.2578,-2.2627,-2.2678,-2.2727,-2.2759,-2.2785,-2.2833,-2.2905,-2.2949,-2.3036,-2.3106,-2.3174,-2.3205,-2.3201,-2.3202,-2.3219,-2.3216,-2.3206,-2.3213,-2.3035,-2.3197,-2.3196,-2.3195,-2.3195,-2.3194,-2.2538,-2.2589,-2.2639,-2.2705,-2.2744,-2.279,-2.2842,-2.2871,-2.2931,-2.3003,-2.3011,-2.3089,-2.3141,-2.3231,-2.3265,-2.3327,-2.3311,-2.3335,-2.3341,-2.3347,-2.3352,-2.3196,-2.334,-2.3339,-2.3339,-2.3339,-2.3339,0,-2.2669,-2.2701,-2.2761,-2.2831,-2.2883,-2.2874,-2.2929,-2.2973,-2.3042,-2.309,-2.3146,-2.323,-2.3298,-2.3338,-2.3407,-2.345,-2.345,-2.3467,-2.3464,-2.3472,-2.3363,-2.3341,-2.3466,-2.3466,-2.3466,-2.3466,-2.3466,-2.3466,-2.2743,-2.2829,-2.2845,-2.2951,-2.2983,-2.3059,-2.3091,-2.3135,-2.3174,-2.3267,-2.3324,-2.3349,-2.3396,-2.3468,-2.3531,-2.3541,-2.3567,-2.3587,-2.3596,-2.3492,-2.3479,-2.3467,-2.3447,-2.3592,-2.3592,-2.37,-2.3701,-2.3702]},{"header":{"parameterUnit":"m.s-1","parameterCategory":1,"la1":30.2991,"la2":30.254,"lo1":-89.0895,"lo2":-89.0444,"dy":0.0017,"dx":0.0017,"nx":28,"ny":28,"refTime":"2026-01-04T03:00:00:Z","depth":0,"parameterNumber":3,"parameterNumberName":"V-component_of_WINDS"},"data":[0,0,0,0,0,0,0,0,0,0,0,0,0,0,0,0,0,0,0,0,0,0,0,0,0,0,0,0,0,0,0,0,0,0,0,0,0,0,0,0,0,0,0,0,0,0,0,0,0,0,0,0,0,0,0,0,0,0,1.2858,1.2859,0,1.2977,1.2978,1.2979,1.303,1.3029,1.3029,1.3029,1.3151,1.3154,1.3158,0,0,0,0,0,0,0,0,0,0,0,0,0,1.2675,1.2678,1.2858,1.2859,1.2861,1.2976,1.2978,1.298,1.303,1.3029,1.3029,1.3029,1.315,1.3154,1.3158,0,0,0,0,0,0,0,0,0,0,0,0,0,1.277,1.2679,1.2857,1.29,1.2905,1.2976,1.2978,1.298,1.303,1.3029,1.3029,1.3029,1.3148,1.3153,1.3158,1.3197,0,0,1.3174,1.3176,0,0,0,0,0,0,0,0,1.2765,1.2777,1.2892,1.2897,1.2902,1.2988,1.2959,1.3053,1.303,1.2982,1.3029,1.3029,1.3097,1.3106,1.3129,1.3203,1.3208,1.3175,1.3178,1.318,1.3181,0,0,0,0,0,0,0,1.2758,1.2772,1.2905,1.2894,1.29,1.2913,1.2926,1.2977,1.304,1.2986,1.299,1.3004,1.31,1.3124,1.3133,1.321,1.3175,1.3179,1.3182,1.3184,1.3323,1.3323,0,0,0,0,0,0,1.2745,1.2766,1.2901,1.2908,1.2831,1.2917,1.2931,1.2961,1.304,1.3051,1.3004,1.3006,1.3115,1.3126,1.3137,1.3188,1.318,1.3185,1.3188,1.3322,1.3323,1.3323,0,0,0,0,0,0,1.274,1.2756,1.2896,1.2839,1.2857,1.292,1.2953,1.2963,1.2988,1.3053,1.3064,1.3017,1.3116,1.313,1.3182,1.3193,1.3187,1.3192,1.3321,1.3322,1.3323,1.3291,0,0,0,0,0,0,1.2735,1.2754,1.2769,1.2838,1.286,1.2939,1.2954,1.2966,1.2997,1.3,1.3068,1.3079,1.3116,1.3174,1.3187,1.32,1.3196,1.3321,1.3322,1.3323,1.3291,1.329,1.329,0,0,0,0,0,1.2728,1.2755,1.277,1.2786,1.288,1.2939,1.2952,1.2994,1.2997,1.3013,1.3055,1.3077,1.319,1.3179,1.3194,1.3209,1.332,1.3321,1.3323,1.3291,1.329,1.329,0,0,0,0,0,0,1.2685,1.2765,1.2782,1.2832,1.2879,1.2948,1.2969,1.2992,1.3038,1.304,1.309,1.3105,1.3153,1.3187,1.3173,1.3251,1.3257,1.3261,1.3228,1.3228,1.3227,1.3218,1.32,0,0,0,0,0,1.2682,1.2723,1.279,1.2828,1.285,1.2905,1.2933,1.2962,1.3012,1.3032,1.3078,1.3126,1.3172,1.3202,1.3248,1.3296,1.3312,1.3314,1.3313,1.3312,1.3316,1.3345,1.3347,1.3328,1.3328,1.3328,0,0,1.2674,1.2723,1.2746,1.282,1.286,1.2902,1.2922,1.2965,1.2997,1.3039,1.3091,1.3126,1.3184,1.3234,1.3259,1.3263,1.3325,1.3314,1.3313,1.3317,1.3346,1.3348,1.335,1.3328,1.3328,1.3328,0,0,1.2683,1.2723,1.276,1.2799,1.2859,1.2896,1.2904,1.2971,1.2996,1.3049,1.3082,1.3121,1.3199,1.3239,1.327,1.3295,1.3317,1.3308,1.3305,1.3333,1.3334,1.3336,1.3345,1.3348,1.3311,1.3311,1.3311,0,1.2666,1.2731,1.2775,1.2818,1.285,1.289,1.2927,1.2964,1.3035,1.3057,1.3061,1.3162,1.3203,1.3264,1.327,1.3293,1.3306,1.3301,1.333,1.3332,1.3335,1.3344,1.3348,1.331,1.331,1.331,1.331,0,1.2708,1.2752,1.2774,1.2843,1.2878,1.2917,1.2969,1.2999,1.3025,1.3061,1.3116,1.3167,1.3225,1.3242,1.3267,1.3307,1.3308,1.332,1.3327,1.3334,1.3344,1.3348,1.3308,1.3308,1.3309,1.3309,0,0,1.2692,1.2785,1.2793,1.2825,1.2895,1.293,1.2972,1.3029,1.3054,1.3102,1.3139,1.3206,1.3218,1.3253,1.3283,1.3308,1.3325,1.3318,1.332,1.3318,1.3373,1.3363,1.3367,1.3341,1.3342,1.3342,1.3369,0,1.271,1.2786,1.2828,1.2887,1.2929,1.2969,1.3005,1.3052,1.3088,1.3129,1.3169,1.3215,1.3228,1.3249,1.3275,1.3318,1.3337,1.3316,1.3376,1.3378,1.336,1.3372,1.3362,1.3384,1.3373,1.3374,1.3374,0,1.2741,1.2789,1.2852,1.2918,1.2937,1.297,1.3026,1.3065,1.3119,1.3143,1.3183,1.3213,1.326,1.3263,1.3328,1.3313,1.334,1.3365,1.3367,1.3374,1.3376,1.338,1.3392,1.3395,1.3381,1.338,1.338,0,1.2723,1.2804,1.2853,1.2879,1.2957,1.2979,1.3012,1.3067,1.3098,1.3148,1.3169,1.3223,1.3253,1.3294,1.3339,1.3337,1.34,1.3406,1.3422,1.3421,1.3433,1.3432,1.345,1.345,1.345,1.345,1.345,0,1.2739,1.2777,1.2846,1.2876,1.2919,1.2968,1.301,1.3046,1.3095,1.3133,1.317,1.3205,1.3262,1.3304,1.334,1.3389,1.3402,1.3423,1.3432,1.342,1.3417,1.3438,1.3438,1.3451,1.3451,1.345,1.345,0,1.2727,1.2775,1.2831,1.29,1.2919,1.2947,1.3007,1.3038,1.3076,1.3124,1.3138,1.3198,1.325,1.3299,1.3368,1.3392,1.3441,1.3453,1.3423,1.3428,1.344,1.3439,1.3473,1.348,1.3475,1.3475,1.3475,0,1.2734,1.2764,1.2837,1.2865,1.2898,1.2943,1.2976,1.3025,1.3058,1.3123,1.3146,1.3201,1.3248,1.3329,1.3379,1.3432,1.3446,1.3454,1.3454,1.3441,1.3446,1.3444,1.3448,1.3453,1.3453,1.3453,1.3452,0,1.2742,1.2764,1.281,1.2865,1.2903,1.2949,1.2995,1.3016,1.3075,1.311,1.3164,1.32,1.3271,1.3326,1.3385,1.342,1.3446,1.3452,1.3459,1.3447,1.3428,1.3439,1.3421,1.3451,1.3451,1.3451,1.3451,1.3452,1.274,1.2768,1.2824,1.2875,1.2915,1.2958,1.2991,1.3033,1.3079,1.3141,1.3167,1.3222,1.3277,1.336,1.3395,1.3439,1.3444,1.3454,1.3456,1.3458,1.3455,1.3421,1.345,1.345,1.345,1.345,1.345,0,1.275,1.2788,1.2834,1.2898,1.2938,1.2959,1.3013,1.3045,1.3092,1.3141,1.3187,1.3249,1.3302,1.3356,1.3413,1.3437,1.3451,1.345,1.3449,1.3457,1.3447,1.3436,1.3439,1.3439,1.3439,1.3439,1.3439,1.3439,1.276,1.2809,1.2839,1.2909,1.2948,1.3001,1.303,1.307,1.311,1.3178,1.3222,1.3258,1.3309,1.337,1.342,1.3435,1.3454,1.345,1.3468,1.3457,1.3458,1.3458,1.3448,1.3454,1.3454,1.3475,1.3475,1.3475]}]]